LOT3942 EPPO-EPWA

Flight info

Callsign LOT3942
Flight time 0h 45m
Altitude 22000
Route OBOKU DCT DOSIX DCT BIMPA
Aircraft B38M/M-SDE1FGHILORVWXY/HB1

Departure

Time 2026-04-22 16:26
Airport Poznań-Ławica Airport (EPPO)

Arrival

Time 2026-04-22 17:11
Airport Warsaw Chopin Airport (EPWA)
Time Latitude Longitude Altitude Speed Heading
2026-04-22 16:15 52.41588 16.82588 301 ft 0 kts 184°
2026-04-22 16:16 52.41598 16.82589 303 ft 2 kts 184°
2026-04-22 16:16 52.41614 16.82591 302 ft 2 kts 185°
2026-04-22 16:16 52.41630 16.82593 302 ft 2 kts 185°
2026-04-22 16:16 52.41647 16.82595 303 ft 2 kts 184°
2026-04-22 16:17 52.41662 16.82602 303 ft 2 kts 216°
2026-04-22 16:17 52.41674 16.82621 304 ft 2 kts 254°
2026-04-22 16:17 52.41674 16.82648 305 ft 2 kts 272°
2026-04-22 16:17 52.41674 16.82674 304 ft 2 kts 272°
2026-04-22 16:18 52.41672 16.82701 304 ft 2 kts 275°
2026-04-22 16:18 52.41672 16.82728 304 ft 2 kts 244°
2026-04-22 16:18 52.41685 16.82739 307 ft 2 kts 185°
2026-04-22 16:18 52.41702 16.82741 304 ft 2 kts 183°
2026-04-22 16:19 52.41717 16.82742 304 ft 1 kts 183°
2026-04-22 16:19 52.41720 16.82742 304 ft 0 kts 183°
2026-04-22 16:20 52.41719 16.82742 304 ft 1 kts 183°
2026-04-22 16:21 52.41709 16.82741 304 ft 2 kts 183°
2026-04-22 16:21 52.41681 16.82749 304 ft 6 kts 149°
2026-04-22 16:21 52.41666 16.82824 304 ft 9 kts 98°
2026-04-22 16:21 52.41653 16.82933 304 ft 11 kts 102°
2026-04-22 16:22 52.41613 16.83219 302 ft 15 kts 103°
2026-04-22 16:22 52.41589 16.83399 302 ft 17 kts 103°
2026-04-22 16:22 52.41571 16.83526 304 ft 9 kts 99°
2026-04-22 16:23 52.41561 16.83802 298 ft 8 kts 93°
2026-04-22 16:23 52.41577 16.83891 298 ft 10 kts 49°
2026-04-22 16:23 52.41629 16.83975 299 ft 11 kts 32°
2026-04-22 16:24 52.41707 16.84026 298 ft 13 kts 21°
2026-04-22 16:24 52.41824 16.84053 302 ft 6 kts 311°
2026-04-22 16:24 52.41838 16.84006 303 ft 0 kts 288°
2026-04-22 16:25 52.41840 16.83996 303 ft 2 kts 290°
2026-04-22 16:25 52.41898 16.83700 306 ft 60 kts 287°
2026-04-22 16:25 52.42096 16.82672 312 ft 127 kts 287°
2026-04-22 16:26 52.42422 16.81005 416 ft 171 kts 288°
2026-04-22 16:26 52.42810 16.79051 1025 ft 186 kts 290°
2026-04-22 16:26 52.43238 16.76958 1733 ft 209 kts 291°
2026-04-22 16:26 52.43479 16.75757 2096 ft 216 kts 291°
2026-04-22 16:27 52.43930 16.73523 2756 ft 229 kts 291°
2026-04-22 16:27 52.44448 16.71001 3570 ft 234 kts 291°
2026-04-22 16:27 52.44971 16.68422 4332 ft 244 kts 291°
2026-04-22 16:28 52.45477 16.65782 5341 ft 242 kts 290°
2026-04-22 16:28 52.45996 16.63058 5965 ft 257 kts 290°
2026-04-22 16:28 52.46507 16.60276 6902 ft 256 kts 290°
2026-04-22 16:28 52.47040 16.57440 7656 ft 261 kts 290°
2026-04-22 16:29 52.47434 16.54578 8692 ft 259 kts 277°
2026-04-22 16:29 52.47166 16.51583 9371 ft 276 kts 251°
2026-04-22 16:29 52.46090 16.48950 10161 ft 284 kts 225°
2026-04-22 16:29 52.44400 16.47188 10726 ft 298 kts 200°
2026-04-22 16:30 52.43037 16.46676 10949 ft 310 kts 182°
2026-04-22 16:30 52.40177 16.47688 11480 ft 325 kts 146°
2026-04-22 16:30 52.38501 16.50138 12003 ft 326 kts 120°
2026-04-22 16:30 52.37593 16.53501 12652 ft 323 kts 96°
2026-04-22 16:31 52.37457 16.57128 13481 ft 322 kts 88°
2026-04-22 16:31 52.36955 16.60746 14280 ft 332 kts 108°
2026-04-22 16:31 52.36124 16.64281 15032 ft 334 kts 104°
2026-04-22 16:31 52.35393 16.67904 15800 ft 337 kts 103°
2026-04-22 16:32 52.34667 16.71559 16581 ft 339 kts 103°
2026-04-22 16:32 52.33945 16.75245 17343 ft 342 kts 103°
2026-04-22 16:32 52.33208 16.79036 18115 ft 345 kts 103°
2026-04-22 16:32 52.32502 16.82674 18777 ft 348 kts 103°
2026-04-22 16:33 52.31769 16.86454 19405 ft 350 kts 103°
2026-04-22 16:33 52.31029 16.90262 20081 ft 353 kts 102°
2026-04-22 16:33 52.30554 16.94158 20770 ft 347 kts 93°
2026-04-22 16:33 52.30223 16.98059 21531 ft 346 kts 94°
2026-04-22 16:34 52.29883 17.01958 22086 ft 348 kts 94°
2026-04-22 16:34 52.29547 17.05843 22249 ft 344 kts 94°
2026-04-22 16:34 52.29215 17.09699 22220 ft 342 kts 94°
2026-04-22 16:34 52.28883 17.13538 22203 ft 342 kts 94°
2026-04-22 16:35 52.28549 17.17382 22198 ft 342 kts 94°
2026-04-22 16:35 52.28215 17.21222 22201 ft 342 kts 94°
2026-04-22 16:35 52.27879 17.25065 22193 ft 342 kts 94°
2026-04-22 16:35 52.27543 17.28900 22195 ft 342 kts 94°
2026-04-22 16:36 52.27205 17.32739 22192 ft 342 kts 94°
2026-04-22 16:36 52.26866 17.36576 22193 ft 342 kts 94°
2026-04-22 16:36 52.26525 17.40414 22195 ft 342 kts 94°
2026-04-22 16:36 52.26183 17.44252 22195 ft 342 kts 94°
2026-04-22 16:37 52.25840 17.48090 22177 ft 342 kts 94°
2026-04-22 16:37 52.25496 17.51925 22180 ft 342 kts 94°
2026-04-22 16:37 52.25150 17.55759 22201 ft 341 kts 94°
2026-04-22 16:37 52.24804 17.59584 22185 ft 341 kts 94°
2026-04-22 16:38 52.24518 17.62738 22180 ft 341 kts 94°
2026-04-22 16:38 52.24281 17.65341 22176 ft 341 kts 94°
2026-04-22 16:38 52.23932 17.69166 22176 ft 341 kts 94°
2026-04-22 16:38 52.23582 17.72987 22176 ft 341 kts 94°
2026-04-22 16:39 52.23279 17.76813 22161 ft 338 kts 87°
2026-04-22 16:39 52.23525 17.80568 22216 ft 333 kts 77°
2026-04-22 16:39 52.23850 17.84324 22151 ft 334 kts 79°
2026-04-22 16:39 52.24168 17.88078 22170 ft 334 kts 79°
2026-04-22 16:40 52.24496 17.91832 22166 ft 334 kts 78°
2026-04-22 16:40 52.24830 17.95583 22169 ft 334 kts 78°
2026-04-22 16:40 52.25475 18.03097 22171 ft 334 kts 79°
2026-04-22 16:41 52.25786 18.06860 22181 ft 334 kts 79°
2026-04-22 16:41 52.26096 18.10618 22167 ft 334 kts 79°
2026-04-22 16:41 52.26401 18.14326 22168 ft 334 kts 79°
2026-04-22 16:41 52.26709 18.18084 22161 ft 334 kts 79°
2026-04-22 16:42 52.27016 18.21842 22155 ft 334 kts 79°
2026-04-22 16:42 52.27322 18.25598 22156 ft 334 kts 79°
2026-04-22 16:42 52.27626 18.29350 22151 ft 334 kts 79°
2026-04-22 16:42 52.27931 18.33113 22151 ft 334 kts 79°
2026-04-22 16:43 52.28233 18.36868 22150 ft 334 kts 79°
2026-04-22 16:43 52.28534 18.40631 22149 ft 334 kts 79°
2026-04-22 16:43 52.28834 18.44391 22151 ft 334 kts 79°
2026-04-22 16:43 52.29134 18.48155 22135 ft 335 kts 79°
2026-04-22 16:44 52.29433 18.51934 22137 ft 336 kts 79°
2026-04-22 16:44 52.29731 18.55715 22140 ft 336 kts 79°
2026-04-22 16:44 52.30027 18.59494 22139 ft 336 kts 79°
2026-04-22 16:44 52.30324 18.63278 22159 ft 335 kts 79°
2026-04-22 16:45 52.30617 18.67054 22139 ft 335 kts 79°
2026-04-22 16:45 52.30909 18.70823 22138 ft 335 kts 79°
2026-04-22 16:45 52.31200 18.74601 22134 ft 335 kts 79°
2026-04-22 16:45 52.31491 18.78377 22136 ft 335 kts 79°
2026-04-22 16:46 52.31780 18.82153 22127 ft 335 kts 79°
2026-04-22 16:46 52.32067 18.85928 22128 ft 335 kts 79°
2026-04-22 16:46 52.32354 18.89703 22129 ft 335 kts 79°
2026-04-22 16:46 52.32639 18.93484 22131 ft 335 kts 79°
2026-04-22 16:47 52.32923 18.97260 22115 ft 335 kts 79°
2026-04-22 16:47 52.33110 18.99763 22119 ft 335 kts 79°
2026-04-22 16:47 52.33392 19.03539 22120 ft 335 kts 79°
2026-04-22 16:47 52.33673 19.07313 22121 ft 335 kts 79°
2026-04-22 16:48 52.33953 19.11093 22112 ft 334 kts 79°
2026-04-22 16:48 52.34322 19.16090 22117 ft 334 kts 79°
2026-04-22 16:48 52.34600 19.19864 22128 ft 334 kts 79°
2026-04-22 16:48 52.34777 19.22414 22120 ft 335 kts 81°
2026-04-22 16:49 52.34962 19.26218 22114 ft 335 kts 82°
2026-04-22 16:49 52.35146 19.30011 22115 ft 335 kts 82°
2026-04-22 16:49 52.35331 19.33756 22111 ft 335 kts 82°
2026-04-22 16:49 52.35519 19.37548 22110 ft 331 kts 81°
2026-04-22 16:50 52.35701 19.41226 22113 ft 317 kts 81°
2026-04-22 16:50 52.35875 19.44745 22117 ft 303 kts 81°
2026-04-22 16:50 52.36040 19.48104 22114 ft 289 kts 81°
2026-04-22 16:50 52.36198 19.51338 22110 ft 287 kts 81°
2026-04-22 16:51 52.36361 19.54671 21986 ft 299 kts 81°
2026-04-22 16:51 52.36526 19.58085 21767 ft 304 kts 81°
2026-04-22 16:51 52.36692 19.61561 21302 ft 308 kts 81°
2026-04-22 16:51 52.36859 19.65066 20875 ft 309 kts 81°
2026-04-22 16:52 52.37025 19.68581 20404 ft 311 kts 81°
2026-04-22 16:52 52.37194 19.72171 19689 ft 321 kts 81°
2026-04-22 16:52 52.37368 19.75863 19021 ft 329 kts 81°
2026-04-22 16:52 52.37313 19.79663 18446 ft 340 kts 94°
2026-04-22 16:53 52.36975 19.83430 18340 ft 326 kts 92°
2026-04-22 16:53 52.36695 19.87001 18100 ft 319 kts 91°
2026-04-22 16:53 52.36409 19.90726 17354 ft 331 kts 92°
2026-04-22 16:53 52.36118 19.94458 16988 ft 328 kts 92°
2026-04-22 16:54 52.35828 19.98152 16643 ft 325 kts 92°
2026-04-22 16:54 52.35540 20.01808 16312 ft 322 kts 92°
2026-04-22 16:54 52.35255 20.05418 15986 ft 319 kts 92°
2026-04-22 16:54 52.34726 20.08936 15634 ft 324 kts 110°
2026-04-22 16:55 52.33412 20.11950 15411 ft 328 kts 130°
2026-04-22 16:55 52.31698 20.14392 15168 ft 326 kts 137°
2026-04-22 16:55 52.29933 20.16682 14950 ft 322 kts 137°
2026-04-22 16:55 52.28196 20.18943 14709 ft 317 kts 137°
2026-04-22 16:56 52.26486 20.21184 14406 ft 315 kts 137°
2026-04-22 16:56 52.24776 20.23443 13960 ft 318 kts 137°
2026-04-22 16:56 52.23055 20.25734 13429 ft 317 kts 137°
2026-04-22 16:56 52.21365 20.27988 12968 ft 311 kts 137°
2026-04-22 16:57 52.19710 20.30196 12526 ft 304 kts 137°
2026-04-22 16:57 52.18087 20.32362 12079 ft 299 kts 137°
2026-04-22 16:57 52.16494 20.34492 11647 ft 294 kts 137°
2026-04-22 16:57 52.14927 20.36589 11217 ft 289 kts 137°
2026-04-22 16:58 52.13384 20.38655 10815 ft 284 kts 137°
2026-04-22 16:58 52.11879 20.40666 10549 ft 274 kts 137°
2026-04-22 16:58 52.10561 20.42789 10313 ft 261 kts 122°
2026-04-22 16:58 52.09567 20.45215 10100 ft 257 kts 117°
2026-04-22 16:59 52.08630 20.47685 9909 ft 256 kts 116°
2026-04-22 16:59 52.07697 20.50154 9679 ft 257 kts 116°
2026-04-22 16:59 52.06778 20.52598 9452 ft 257 kts 116°
2026-04-22 16:59 52.05849 20.55075 9256 ft 256 kts 116°
2026-04-22 17:00 52.04927 20.57547 9028 ft 256 kts 116°
2026-04-22 17:00 52.03097 20.62478 8719 ft 254 kts 116°
2026-04-22 17:00 52.02185 20.64935 8585 ft 254 kts 116°
2026-04-22 17:01 52.01280 20.67387 8446 ft 253 kts 116°
2026-04-22 17:01 52.00378 20.69847 8313 ft 253 kts 117°
2026-04-22 17:01 51.99318 20.72141 8167 ft 256 kts 132°
2026-04-22 17:01 51.98001 20.74090 8015 ft 257 kts 136°
2026-04-22 17:02 51.96646 20.75989 7887 ft 257 kts 137°
2026-04-22 17:02 51.95294 20.77886 7737 ft 257 kts 137°
2026-04-22 17:02 51.93966 20.79824 7583 ft 256 kts 128°
2026-04-22 17:02 51.93165 20.82287 7382 ft 245 kts 99°
2026-04-22 17:03 51.92796 20.84981 7277 ft 245 kts 96°
2026-04-22 17:03 51.92452 20.87691 7149 ft 246 kts 96°
2026-04-22 17:03 51.92115 20.90408 7021 ft 246 kts 96°
2026-04-22 17:03 51.91854 20.92530 6869 ft 246 kts 96°
2026-04-22 17:04 51.91620 20.94432 6718 ft 248 kts 96°
2026-04-22 17:04 51.91431 20.95957 6582 ft 249 kts 96°
2026-04-22 17:04 51.91344 20.96647 6522 ft 250 kts 96°
2026-04-22 17:04 51.91203 20.97856 6419 ft 249 kts 92°
2026-04-22 17:05 51.91395 21.00519 6078 ft 233 kts 55°
2026-04-22 17:05 51.92380 21.02476 5844 ft 220 kts 37°
2026-04-22 17:05 51.93500 21.04169 5644 ft 220 kts 35°
2026-04-22 17:05 51.94689 21.05719 5367 ft 218 kts 25°
2026-04-22 17:06 51.96070 21.06653 5011 ft 216 kts 17°
2026-04-22 17:06 51.97454 21.07659 4666 ft 219 kts 20°
2026-04-22 17:06 51.98848 21.08682 4298 ft 219 kts 14°
2026-04-22 17:06 52.00322 21.09298 3933 ft 219 kts
2026-04-22 17:07 52.01835 21.09321 3574 ft 217 kts 346°
2026-04-22 17:07 52.03233 21.08458 3255 ft 215 kts 331°
2026-04-22 17:07 52.04533 21.07248 2902 ft 215 kts 330°
2026-04-22 17:07 52.05821 21.06099 2617 ft 208 kts 331°
2026-04-22 17:08 52.06500 21.05512 2430 ft 203 kts 331°
2026-04-22 17:08 52.07689 21.04479 2132 ft 182 kts 330°
2026-04-22 17:08 52.08710 21.03588 1894 ft 153 kts 329°
2026-04-22 17:08 52.09594 21.02817 1714 ft 140 kts 329°
2026-04-22 17:09 52.10435 21.02081 1512 ft 134 kts 330°
2026-04-22 17:09 52.11253 21.01366 1343 ft 134 kts 331°
2026-04-22 17:09 52.12063 21.00661 1148 ft 134 kts 331°
2026-04-22 17:09 52.12896 20.99927 966 ft 135 kts 331°
2026-04-22 17:10 52.13730 20.99204 787 ft 136 kts 329°
2026-04-22 17:10 52.14549 20.98460 599 ft 137 kts 331°
2026-04-22 17:10 52.15388 20.97753 401 ft 135 kts 331°
2026-04-22 17:10 52.16194 20.97059 346 ft 120 kts 333°
2026-04-22 17:11 52.16752 20.96568 349 ft 58 kts 331°
2026-04-22 17:11 52.17004 20.96338 338 ft 40 kts 331°
2026-04-22 17:11 52.17153 20.96254 336 ft 20 kts 351°
2026-04-22 17:11 52.17309 20.96246 341 ft 18 kts
2026-04-22 17:12 52.17390 20.96274 346 ft 13 kts 49°
2026-04-22 17:12 52.17398 20.96295 336 ft 2 kts 60°
2026-04-22 17:12 52.17410 20.96327 337 ft 5 kts 60°
2026-04-22 17:12 52.17429 20.96385 341 ft 7 kts 62°
2026-04-22 17:13 52.17455 20.96465 339 ft 7 kts 62°
2026-04-22 17:13 52.17470 20.96550 340 ft 9 kts 104°
2026-04-22 17:13 52.17420 20.96609 338 ft 10 kts 151°
2026-04-22 17:13 52.17350 20.96670 336 ft 13 kts 153°
2026-04-22 17:14 52.17265 20.96744 338 ft 15 kts 152°
2026-04-22 17:14 52.17184 20.96816 340 ft 13 kts 151°
2026-04-22 17:14 52.17100 20.96889 338 ft 15 kts 151°
2026-04-22 17:14 52.17003 20.96974 338 ft 17 kts 152°
2026-04-22 17:15 52.16930 20.97038 339 ft 18 kts 151°
2026-04-22 17:15 52.16832 20.97138 341 ft 7 kts 107°
2026-04-22 17:15 52.16840 20.97227 340 ft 9 kts 76°
2026-04-22 17:15 52.16848 20.97275 341 ft 1 kts 75°
2026-04-22 17:16 52.16848 20.97278 340 ft 0 kts 76°